Weather History for KHWY - August, 2014

Change the Weather History Date:

Wednesday, August 27, 2014

  Actual Average (KHEF) Record (KHEF)
Temperature  
Mean Temperature 71 °F -  
Max Temperature 89 °F 81 °F 91 °F (2006)
Min Temperature 53 °F 61 °F 59 °F (2010)
Cooling Degree Days 6    
Growing Degree Days 21 (Base 50)    
Moisture  
Dew Point 65 °F    
Average Humidity 83    
Maximum Humidity 100    
Minimum Humidity 47    
Precipitation  
Precipitation 0.00 in - - ()
Sea Level Pressure  
Sea Level Pressure 30.03 in    
Wind  
Wind Speed 0 mph (WNW)    
Max Wind Speed 5 mph    
Max Gust Speed -    
Visibility 7 miles    
Events Fog    
Averages and records for this station are not official NWS values.
T = Trace of Precipitation, MM = Missing Value Source: NWS Daily Summary

Daily Weather History Graph

Daily Weather History Graph

Search for Another Location

Airport or City:

Trip Planner

Search our weather history database for the weather conditions in past years. The results will help you decide how hot, cold, wet, or windy it might be!

Date:

Astronomy

Aug. 27, 2014 Rise Set
Actual Time 6:35 AM EDT 7:48 PM EDT
Civil Twilight 6:08 AM EDT 8:15 PM EDT
Nautical Twilight 5:35 AM EDT 8:48 PM EDT
Astronomical Twilight 5:00 AM EDT 9:22 PM EDT
Moon 8:28 AM EDT (8/27) 8:41 PM EDT (8/27)
Length of Visible Light 14h 07m
Length of Day
13h 12m
Waxing Crescent, 4% of the Moon is Illuminated
Aug 27
Waxing Crescent
Sep 2
First Quarter
Sep 8
Full
Sep 15
Last Quarter
Sep 24
New

Hourly Weather History & Observations

Time (EDT) Temp. Heat Index Dew Point Humidity Pressure Visibility Wind Dir Wind Speed Gust Speed Precip Events Conditions
12:15 AM 61.7 °F - 61.7 °F 100% 30.10 in 1.8 mi Calm Calm - N/A   Mist
12:35 AM 60.3 °F - 60.3 °F 100% 30.10 in 2.0 mi Calm Calm - N/A   Clear
12:55 AM 59.5 °F - 59.5 °F 100% 30.09 in 0.5 mi Calm Calm - N/A Fog Fog
1:15 AM 58.6 °F - 58.6 °F 100% 30.08 in 0.2 mi Calm Calm - N/A Fog Fog
1:35 AM 58.5 °F - 58.5 °F 100% 30.08 in 0.2 mi Calm Calm - N/A Fog Fog
1:55 AM 57.7 °F - 57.7 °F 100% 30.07 in 0.2 mi Calm Calm - N/A Fog Fog
2:15 AM 57.9 °F - 57.9 °F 100% 30.07 in 0.5 mi Calm Calm - N/A Fog Fog
2:35 AM 57.7 °F - 57.7 °F 100% 30.07 in 0.2 mi Calm Calm - N/A Fog Fog
2:55 AM 56.7 °F - 56.7 °F 100% 30.07 in 0.2 mi Calm Calm - N/A Fog Fog
3:15 AM 56.8 °F - 56.8 °F 100% 30.05 in 0.2 mi Calm Calm - N/A Fog Fog
3:35 AM 55.8 °F - 55.8 °F 100% 30.05 in 0.2 mi Calm Calm - N/A Fog Fog
3:55 AM 56.8 °F - 56.8 °F 100% 30.05 in 0.5 mi Calm Calm - N/A Fog Fog
4:15 AM 56.3 °F - 56.3 °F 100% 30.05 in 0.2 mi Calm Calm - N/A Fog Fog
4:35 AM 56.3 °F - 56.3 °F 100% 30.05 in 0.5 mi Calm Calm - N/A Fog Fog
4:55 AM 56.3 °F - 56.3 °F 100% 30.05 in 0.2 mi Calm Calm - N/A Fog Fog
5:15 AM 54.3 °F - 54.3 °F 100% 30.05 in 0.5 mi Calm Calm - N/A Fog Fog
5:35 AM 54.5 °F - 54.5 °F 100% 30.05 in 0.2 mi Calm Calm - N/A Fog Fog
5:55 AM 54.3 °F - 54.3 °F 100% 30.07 in 0.2 mi Calm Calm - N/A Fog Fog
6:15 AM 53.4 °F - 53.4 °F 100% 30.07 in 0.5 mi Calm Calm - N/A Fog Fog
6:35 AM 54.1 °F - 54.1 °F 100% 30.08 in 0.2 mi Calm Calm - N/A Fog Fog
6:55 AM 54.7 °F - 54.7 °F 100% 30.09 in 1.5 mi Calm Calm - N/A   Mist
7:15 AM 56.8 °F - 56.8 °F 100% 30.09 in 5.0 mi Calm Calm - N/A   Clear
7:35 AM 58.8 °F - 58.8 °F 100% 30.09 in 10.0 mi Calm Calm - N/A   Clear
7:55 AM 61.0 °F - 61.0 °F 100% 30.10 in 10.0 mi Calm Calm - N/A   Clear
8:15 AM 62.8 °F - 62.8 °F 100% 30.10 in 10.0 mi Calm Calm - N/A   Clear
8:35 AM 64.2 °F - 64.2 °F 100% 30.10 in 10.0 mi Calm Calm - N/A   Clear
8:55 AM 66.4 °F - 66.4 °F 100% 30.10 in 10.0 mi Calm Calm - N/A   Clear
9:15 AM 67.5 °F - 67.5 °F 100% 30.10 in 10.0 mi Calm Calm - N/A   Clear
9:35 AM 69.8 °F - 69.8 °F 100% 30.10 in 10.0 mi Calm Calm - N/A   Clear
9:55 AM 75.2 °F - 71.2 °F 87% 30.10 in 10.0 mi Calm Calm - N/A   Clear
10:15 AM 76.6 °F - 70.7 °F 82% 30.10 in 10.0 mi Calm Calm - N/A   Clear
10:35 AM 78.4 °F - 70.5 °F 77% 30.10 in 10.0 mi Calm Calm - N/A   Clear
10:55 AM 80.4 °F 83.8 °F 70.3 °F 71% 30.10 in 10.0 mi Calm Calm - N/A   Clear
11:15 AM 81.0 °F 84.2 °F 69.6 °F 68% 30.09 in 10.0 mi Calm Calm - N/A   Clear
11:35 AM 82.6 °F 86.8 °F 70.5 °F 67% 30.08 in 10.0 mi Calm Calm - N/A   Clear
11:55 AM 83.5 °F 87.2 °F 69.3 °F 62% 30.07 in 10.0 mi Calm Calm - N/A   Clear
12:15 PM 84.9 °F 89.1 °F 69.4 °F 60% 30.07 in 10.0 mi Calm Calm - N/A   Clear
12:35 PM 85.6 °F 88.2 °F 66.7 °F 53% 30.06 in 10.0 mi WSW 3.5 mph - N/A   Clear
12:55 PM 84.9 °F 87.9 °F 67.8 °F 56% 30.05 in 10.0 mi Calm Calm - N/A   Clear
1:15 PM 86.9 °F 90.6 °F 68.5 °F 54% 30.04 in 10.0 mi Calm Calm - N/A   Clear
1:35 PM 87.3 °F 90.2 °F 67.1 °F 51% 30.03 in 10.0 mi NW 3.5 mph - N/A   Clear
1:55 PM 87.8 °F 90.7 °F 67.1 °F 50% 30.02 in 10.0 mi Calm Calm - N/A   Clear
2:15 PM 87.8 °F 89.7 °F 65.5 °F 47% 30.02 in 10.0 mi NNW 4.6 mph - N/A   Clear
2:35 PM 88.5 °F 91.2 °F 66.7 °F 48% 30.01 in 10.0 mi WSW 3.5 mph - N/A   Clear
2:55 PM 89.2 °F 92.8 °F 67.6 °F 49% 30.00 in 10.0 mi Calm Calm - N/A   Clear
3:15 PM 89.2 °F 93.6 °F 68.7 °F 51% 29.99 in 10.0 mi NNW 3.5 mph - N/A   Clear
3:35 PM 89.6 °F 94.3 °F 69.1 °F 51% 29.98 in 10.0 mi Calm Calm - N/A   Clear
3:55 PM 88.9 °F 93.0 °F 68.7 °F 51% 29.98 in 10.0 mi Calm Calm - N/A   Clear
4:15 PM 88.7 °F 92.6 °F 68.5 °F 51% 29.97 in 10.0 mi Calm Calm - N/A   Clear
4:35 PM 89.6 °F 93.9 °F 68.9 °F 50% 29.98 in 10.0 mi Calm Calm - N/A   Clear
4:55 PM 89.4 °F 94.0 °F 69.1 °F 51% 29.97 in 10.0 mi Calm Calm - N/A   Clear
5:15 PM 89.4 °F 95.3 °F 70.9 °F 54% 29.97 in 10.0 mi Calm Calm - N/A   Clear
5:35 PM 88.7 °F 94.3 °F 70.7 °F 55% 29.96 in 10.0 mi Calm Calm - N/A   Clear
5:55 PM 88.7 °F 95.7 °F 72.0 °F 58% 29.95 in 10.0 mi Calm Calm - N/A   Clear
6:15 PM 88.7 °F 95.7 °F 72.0 °F 58% 29.95 in 10.0 mi Calm Calm - N/A   Clear
6:35 PM 88.3 °F 95.9 °F 72.7 °F 60% 29.94 in 10.0 mi Calm Calm - N/A   Clear
6:55 PM 85.5 °F 94.2 °F 75.2 °F 71% 29.94 in 10.0 mi Calm Calm - N/A   Clear
7:15 PM 81.3 °F 87.4 °F 74.8 °F 81% 29.93 in 10.0 mi Calm Calm - N/A   Clear
7:35 PM 78.3 °F - 73.6 °F 85% 29.93 in 10.0 mi Calm Calm - N/A   Clear
7:55 PM 75.4 °F - 72.9 °F 92% 29.93 in 10.0 mi Calm Calm - N/A   Clear
8:15 PM 73.8 °F - 71.8 °F 93% 29.93 in 10.0 mi Calm Calm - N/A   Clear
8:35 PM 72.5 °F - 71.2 °F 96% 29.94 in 10.0 mi Calm Calm - N/A   Clear
8:55 PM 72.1 °F - 70.9 °F 96% 29.94 in 10.0 mi Calm Calm - N/A   Clear
9:15 PM 70.9 °F - 70.9 °F 100% 29.94 in 10.0 mi Calm Calm - N/A   Clear
9:35 PM 70.7 °F - 70.7 °F 100% 29.94 in 10.0 mi Calm Calm - N/A   Clear
9:55 PM 70.3 °F - 70.3 °F 100% 29.95 in 10.0 mi Calm Calm - N/A   Clear
10:15 PM 70.2 °F - 70.2 °F 100% 29.94 in 10.0 mi Calm Calm - N/A   Clear
10:35 PM 70.7 °F - 70.7 °F 100% 29.94 in 10.0 mi Calm Calm - N/A   Clear
10:55 PM 69.8 °F - 69.8 °F 100% 29.93 in 7.0 mi Calm Calm - N/A   Clear
11:15 PM 69.3 °F - 69.3 °F 100% 29.94 in 7.0 mi Calm Calm - N/A   Clear
11:35 PM 69.1 °F - 69.1 °F 100% 29.94 in 7.0 mi Calm Calm - N/A   Clear
11:55 PM 69.6 °F - 69.6 °F 100% 29.94 in 10.0 mi Calm Calm - N/A   Clear